Home   Weather   Kuujjuaq   Past weeks

Flag for Canada Past Weather in Kuujjuaq, Quebec, Canada — Yesterday and Last 2 Weeks

Now
10 °F

Light snow. Mostly cloudy.


Feels Like: 1 °F
Forecast: 3 / 13 °F
Wind: 6 mph from Southwest

Location: Kuujjuaq

Current Time: Jan 20, 2017 at 3:04:00 am

Latest Report: Jan 20, 2017 at 2:00 am


Visibility: 15 mi

Pressure: 29.94 "Hg

Humidity: 79%

Dew Point: 5 °F

Location of KuujjuaqLocation

Past Weather in Kuujjuaq — Graph

°F

Kuujjuaq Temperature Yesterday

Maximum temperature yesterday: 18 °F (at 2:00 am)
Minimum temperature yesterday: 9 °F (at 9:00 am)
Average temperature yesterday: 14 °F

High & Low Weather Summary for the Past Weeks

 TemperatureHumidityPressure
High28 °F (Jan 11, 7:00 pm)100% (Jan 5, 10:00 pm)30.36 "Hg (Jan 5, 10:00 pm)
Low-29 °F (Jan 11, 1:00 am)54% (Jan 12, 12:00 pm)28.62 "Hg (Jan 5, 11:50 pm)
Average-3 °F74%29.73 "Hg
* Reported Jan 5 2:00 am — Jan 20 2:00 am, Kuujjuaq, Weather by CustomWeather, © 2017

Note: Actual official high and low records may vary slightly from our data, if they occured in-between our weather recording intervals... More about our weather records

Advertising

Kuujjuaq Weather History for the Previous 24 Hours

Scroll right to see more
 ConditionsComfort  
Time TempWeatherWind HumidityBarometerVisibility
2:00 am
Fri, Jan 20
10 °FLight snow. Mostly cloudy.6 mph79%29.94 "Hg15 mi
1:00 am10 °FLight snow. Overcast.2 mph85%29.93 "Hg15 mi
12:00 am10 °FLight snow. Mostly cloudy.6 mph85%29.91 "Hg15 mi
11:00 pm
Thu, Jan 19
12 °FLight snow. Overcast.2 mph85%29.92 "Hg15 mi
10:00 pm12 °FLight snow. Overcast.5 mph85%29.92 "Hg15 mi
9:00 pm12 °FLight snow. Overcast.3 mph92%29.92 "Hg10 mi
8:00 pm14 °FLight snow. Partly cloudy.2 mph85%29.90 "Hg10 mi
7:00 pm14 °FLight snow. Passing clouds.2 mph92%29.90 "Hg15 mi
6:00 pm14 °FLight snow. Overcast.6 mph92%29.88 "Hg10 mi
5:00 pm16 °FLight snow. Overcast.6 mph86%29.87 "Hg6 mi
4:00 pm14 °FLight snow. Overcast.5 mph85%29.85 "Hg12 mi
3:00 pm16 °FLight snow. Partly sunny.2 mph86%29.82 "Hg12 mi
2:27 pm16 °FLight snow. Partly sunny.5 mph79%29.81 "Hg12 mi
2:00 pm16 °FBroken clouds.10 mph79%29.80 "Hg15 mi
1:08 pm16 °FScattered clouds.3 mph79%29.77 "Hg15 mi
12:00 pm14 °FLight snow. Broken clouds.8 mph85%29.75 "Hg12 mi
11:49 am14 °FLight snow. Broken clouds.8 mph79%29.74 "Hg10 mi
11:31 am12 °FLight snow. Broken clouds.7 mph85%29.74 "Hg12 mi
11:19 am12 °FBroken clouds.9 mph85%29.74 "Hg15 mi
11:00 am12 °FPartly sunny.8 mph85%29.73 "Hg15 mi
10:00 am10 °FPassing clouds.6 mph85%29.71 "Hg15 mi
9:00 am9 °FScattered clouds.9 mph92%29.69 "Hg15 mi
8:00 am12 °FLight snow. Partly cloudy.8 mph92%29.67 "Hg15 mi
7:00 am14 °FLight snow. Passing clouds.3 mph85%29.63 "Hg15 mi
6:00 am14 °FLight snow. Overcast.2 mph92%29.62 "Hg15 mi
5:00 am16 °FLight snow. Overcast.2 mph86%29.59 "Hg15 mi
4:00 am16 °FLight snow. Overcast.2 mph86%29.56 "Hg15 mi
3:00 am18 °FLight snow. Mostly cloudy.3 mph79%29.54 "Hg15 mi
Weather by CustomWeather, © 2017

See weather overviewHow to use our weather pages